Weather in Rassvet

Russia / Astrakhan Oblast     46°33′32″N   47°57′25″E
temp.,
°C
wind,
m/s
gust,
m/s
humid.,
%
clouds,
%
prec.,
mm/h
press.,
hPa
HPBL,
m
19 september, sun
sun1901:00+14se33655 0.0 102094
04:00+13ese34675 0.0 102084
07:00+12e3664100 0.0 1020142
10:00+19ese6843100 0.0 1020979
13:00+22ese7735100 0.0 10191640
16:00+21ese783598 0.0 10181526
19:00+17ese695293 0.0 1018523
22:00+15e5115982 0.0 1018375
20 september, mon
mon2001:00+14e512657 0.0 1017298
04:00+14e512695 0.0 1016313
07:00+14e5137151 0.0 1015302
10:00+22ese6743100 0.0 1015658
13:00+26sse4531100 0.0 10141452
16:00+26se6538100 0.1 10131457
19:00+21se475499 0.0 1015261
22:00+18se466797 0.0 1015132
21 september, tue
tue2101:00+19s346397 0.0 1016128
04:00+19wsw226396 0.0 101639
07:00+19ene2365100 0.0 101571
10:00+21nnw2358100 0.0 1016275
13:00+25ene444359 0.0 10151094
16:00+27ese6529100 0.0 10142078
19:00+21se694252 0.0 1014337
22:00+17ese495978 0.0 1015231
22 september, wed
wed2201:00+17ese3770100 0.0 1014191
04:00+16e347583 0.0 101486
07:00+16e2275100 0.0 101456
10:00+20w235593 0.0 1015331
13:00+24n433898 0.0 10141065
16:00+26ene5729100 0.0 10131388
19:00+21ese4734100 0.0 1015271
22:00+19ene2239100 0.0 101580
23 september, thu
thu2301:00+19nne3737100 0.0 1014263
04:00+15ne81176100 0.6 1014345
07:00+17ene61460100 0.0 1013547
10:00+20ese7947100 0.0 1013794
13:00+23se910474 0.0 10131350
16:00+22se9103710 0.0 10121256
19:00+19e6133768 0.0 1012613
22:00+18e71552100 0.0 1012592